#timestamp,LO_Frequency,Hit,StdDev 
1682582415.1,286046998.1,P
1682582416.0,286046998.1,N
1682582435.8,286047000.9,N
1682582455.6,286047000.8,N
1682582475.5,286047000.9,N
1682582495.3,286047000.4,N
1682582515.2,286047000.9,N
1682582535.9,286047000.0,N
1682582555.7,286046999.7,N
1682582575.6,286046999.9,N
1682582595.4,286046999.8,N
1682582615.2,286047002.4,N
1682582635.1,286047000.9,N
1682582636.0,286047000.9,N
1682582655.8,286047002.4,N
1682582675.7,286047002.2,N
1682582695.5,286047002.6,N
1682582715.3,286047000.1,N
1682582735.2,286047000.3,N
1682582755.0,286046999.7,N
1682582755.9,286046999.7,N
1682582775.8,286047000.0,N
1682582795.6,286047002.6,N
1682582815.4,286046999.9,N
1682582835.3,286047000.2,N
1682582855.1,286047000.0,N
1682582875.9,286047000.2,N
1682582895.7,286047002.7,N
1682582915.5,286047000.9,N
1682582935.4,286046999.8,N
1682582955.2,286047002.5,N
1682582975.1,286047001.5,N
1682582976.0,286047001.5,N
1682582995.8,286047002.6,N
1682583015.6,286047002.0,N
1682583035.5,286047002.0,N
1682583055.3,286047001.6,N
1682583075.2,286047002.6,N
1682583095.9,286047002.7,N
1682583115.7,286047002.6,N
1682583135.6,286046999.8,N
1682583155.4,286046999.7,N
1682583175.3,286047000.2,N
1682583195.1,286046999.9,N
1682583196.0,286046999.9,N
1682583215.8,286046999.8,N
1682583235.7,286047002.0,N
1682583255.5,286047003.7,Y
1682583275.3,286047002.4,P
1682583295.2,286047002.6,P
1682583315.0,286047002.4,P
1682583315.9,286047002.4,Y
1682583335.8,286046998.2,P
1682583355.6,286047001.1,N
1682583375.4,286047000.5,N
1682583395.3,286047001.2,N
1682583415.1,286046999.4,N
1682583435.9,286046999.0,N
1682583455.7,286046997.0,N
1682583475.5,286046999.5,N
1682583495.4,286046996.8,N
1682583515.2,286046996.6,N
1682583535.0,286046999.0,N
1682583535.9,286046999.0,N
1682583555.8,286046998.9,N
1682583575.6,286047001.1,N
1682583595.5,286046998.8,N
1682583615.3,286047001.2,N
1682583635.1,286047000.9,N
1682583655.9,286046999.9,N
1682583675.7,286047001.0,N
1682583695.6,286047000.8,N
1682583715.4,286046998.9,N
1682583735.2,286046999.0,N
1682583755.1,286046998.5,N
1682583756.0,286046998.5,N
1682583775.8,286047000.9,N
1682583795.6,286047000.7,N
1682583815.5,286046998.1,N
1682583835.3,286046998.6,N
1682583855.1,286046998.8,N
1682583875.9,286046998.7,N
1682583895.7,286046997.1,N
1682583915.6,286046997.1,N
1682583935.4,286046997.6,N
1682583955.2,286046997.0,N
1682583975.1,286046996.5,N
1682583976.0,286046996.5,N
1682583995.8,286046997.0,N
1682584015.7,286046996.9,N
1682584035.5,286046996.7,N
1682584055.3,286046996.9,N
1682584075.2,286046999.6,N
1682584095.9,286046999.2,N
1682584115.7,286046999.0,N
1682584135.6,286046998.9,N
1682584155.4,286046998.9,N
1682584175.2,286046998.9,N
1682584195.1,286046999.2,N
1682584196.0,286046999.2,N
1682584215.8,286046998.4,N
1682584235.7,286046998.7,N
1682584255.5,286046998.7,N
1682584275.3,286047001.2,N
1682584295.2,286046998.2,N
1682584315.0,286046999.2,N
1682584315.9,286046999.2,N
1682584335.8,286046998.6,N
1682584355.6,286046998.4,N
1682584375.4,286046998.4,N
1682584395.3,286046999.1,N
1682584415.1,286046998.5,N
1682584435.8,286046998.4,N
1682584455.7,286047001.2,N
1682584475.5,286047000.5,N
1682584495.3,286046998.2,N
1682584515.2,286046998.5,N
1682584535.0,286046998.2,N
1682584535.9,286046998.2,N
1682584555.8,286046998.3,N
1682584575.6,286047000.6,N
1682584595.4,286047001.1,N
1682584615.3,286047000.8,N
1682584635.1,286046999.9,N
1682584655.8,286047001.2,N
1682584675.7,286046998.1,N
1682584695.5,286047001.1,N
1682584715.4,286046999.3,N
1682584735.2,286046999.1,N
1682584755.0,286046998.7,N
1682584755.9,286046998.7,N
1682584775.8,286046999.1,N
1682584795.6,286046996.6,Y
1682584815.5,286046998.4,P
1682584835.3,286046998.6,P
1682584855.1,286046999.2,N
1682584875.9,286046999.4,N
1682584895.7,286046996.5,Y
1682584915.5,286046999.2,P
1682584935.4,286046999.4,P
1682584955.2,286046996.8,P
1682584975.1,286046997.8,N
1682584976.0,286046997.8,N
1682584995.8,286046997.4,N
1682585015.6,286046994.9,Y
1682585035.5,286046998.7,P
1682585055.3,286046998.6,P
1682585075.1,286046998.6,P
1682585095.9,286046998.4,Y
1682585115.7,286046998.1,P
1682585135.6,286046998.1,P
1682585155.4,286046998.2,P
1682585175.2,286046999.0,Y
1682585195.1,286046999.9,P
1682585196.0,286046999.9,N
1682585215.8,286047002.6,P
1682585235.7,286046999.8,N
1682585255.5,286046999.9,N
1682585275.3,286047000.1,N
1682585295.2,286047001.0,N
1682585315.0,286047000.4,N
1682585315.9,286047000.4,N
1682585335.7,286047000.9,N
1682585355.6,286047000.8,N
1682585375.4,286046998.6,N
1682585395.3,286046998.8,N
1682585415.1,286046998.3,N
1682585435.8,286047000.4,N
1682585455.7,286047000.4,N
1682585475.5,286047000.7,N
1682585495.4,286046999.5,N
1682585515.2,286046999.4,N
1682585535.0,286046999.1,N
1682585535.9,286046999.1,N
1682585555.8,286046999.1,N
1682585575.6,286046997.3,N
1682585595.4,286046996.7,Y
1682585615.3,286046999.5,P
1682585635.1,286046999.5,P
1682585655.9,286046996.5,P
1682585675.7,286046998.9,N
1682585695.5,286046998.3,N
1682585715.4,286046998.8,N
1682585735.2,286046999.3,N
1682585755.0,286046999.6,N
1682585755.9,286046999.6,N
1682585775.8,286046999.1,N
1682585795.6,286046996.9,Y
1682585815.5,286046998.4,P
1682585835.3,286046999.4,N
1682585855.1,286046996.7,P
1682585875.9,286046997.7,N
1682585895.7,286046994.9,Y
1682585915.5,286046999.4,P
1682585935.4,286046999.3,N
1682585955.2,286046998.8,N
1682585975.1,286046998.9,N
1682585976.0,286046998.9,N
1682585995.8,286046999.0,N
